Location: ????????
(60.4333°N, 46.4710°E)
Time: 19:54:47
(UTC+00:00)

CSL-04 Rocket - Pass Details

Date: 25 November 2020
Orbit: 807 x 859 km, 98.9° (Epoch: 17 January)

Event Time Altitude Azimuth Distance (km) Brightness Sun altitude
Exits shadow 16:03:09 24° 187° (S) 1,643 5.1 -28.1°
Maximum altitude 16:06:18 57° 257° (WSW) 962 4.1 -28.5°
Drops below altitude 10° 16:11:34 10° 337° (NNW) 2,414 6.4 -29.2°
Sets 16:13:57 0° 341° (NNW) 3,345 7.2 -29.5°
